Location: Newark
(44.3681°N, 100.3364°W)
Time: 18:09:47
(UTC+00:00)

Explorer 7 - Pass Details

Date: 21 February 2020
Orbit: 485 x 679 km, 50.3° (Epoch: 03 April)

Event Time Altitude Azimuth Distance (km) Brightness Sun altitude
Rises 02:05:59 0° 289° (WNW) 2,686 11.7 -20.2°
Reaches altitude 10° 02:08:44 10° 272° (W) 1,756 10.6 -20.7°
Maximum altitude 02:11:34 19° 226° (SW) 1,254 9.1 -21.2°
Enters shadow 02:14:04 11° 182° (S) 1,623 9.2 -21.6°
Drops below altitude 10° 02:14:19 10° 179° (S) 1,691 - -21.7°
Sets 02:16:54 0° 161° (SSE) 2,549 - -22.1°
